TimeCDT,TemperatureF,Dew PointF,Humidity,Sea Level PressureIn,VisibilityMPH,Wind Direction,Wind SpeedMPH,Gust SpeedMPH,PrecipitationIn,Events,Conditions,WindDirDegrees,DateUTC
12:53 AM,37.9,26.1,62,30.34,10.0,Calm,Calm,-,N/A,,Clear,0,2013-04-17 05:53:00
1:53 AM,36.0,27.0,70,30.34,10.0,Calm,Calm,-,N/A,,Clear,0,2013-04-17 06:53:00
2:53 AM,36.0,25.0,64,30.34,10.0,Calm,Calm,-,N/A,,Clear,0,2013-04-17 07:53:00
3:53 AM,37.0,24.1,59,30.34,10.0,Calm,Calm,-,N/A,,Partly Cloudy,0,2013-04-17 08:53:00
4:53 AM,37.0,25.0,62,30.30,10.0,ENE,4.6,-,N/A,,Overcast,70,2013-04-17 09:53:00
5:53 AM,36.0,25.0,64,30.27,10.0,ENE,3.5,-,N/A,,Clear,70,2013-04-17 10:53:00
6:53 AM,36.0,25.0,64,30.28,10.0,East,8.1,-,N/A,,Overcast,80,2013-04-17 11:53:00
7:53 AM,37.0,26.1,65,30.32,10.0,East,5.8,-,N/A,,Overcast,80,2013-04-17 12:53:00
8:53 AM,37.4,26.6,65,30.29,10.0,East,6.9,-,N/A,,Overcast,100,2013-04-17 13:53:00
9:53 AM,37.9,27.0,65,30.27,10.0,ENE,5.8,-,N/A,,Overcast,60,2013-04-17 14:53:00
10:53 AM,37.9,28.0,68,30.30,10.0,East,8.1,-,N/A,,Overcast,90,2013-04-17 15:53:00
11:53 AM,39.0,28.0,65,30.26,10.0,East,8.1,-,N/A,,Overcast,80,2013-04-17 16:53:00
12:53 PM,39.0,28.9,67,30.19,10.0,ENE,11.5,19.6,0.00,,Overcast,70,2013-04-17 17:53:00
1:53 PM,39.9,30.0,68,30.15,10.0,ENE,10.4,-,0.00,,Overcast,70,2013-04-17 18:53:00
2:53 PM,41.0,28.9,62,30.12,10.0,ENE,15.0,-,N/A,,Overcast,60,2013-04-17 19:53:00
3:53 PM,41.0,28.9,62,30.11,10.0,ENE,12.7,-,N/A,,Overcast,70,2013-04-17 20:53:00
4:53 PM,42.1,30.0,62,30.09,10.0,ENE,18.4,23.0,N/A,,Overcast,70,2013-04-17 21:53:00
5:19 PM,39.2,30.2,70,30.06,9.0,East,16.1,25.3,N/A,,Overcast,80,2013-04-17 22:19:00
5:28 PM,39.2,30.2,70,30.06,10.0,ENE,11.5,-,N/A,,Overcast,70,2013-04-17 22:28:00
5:51 PM,39.2,33.8,81,30.04,5.0,ENE,12.7,-,0.00,Rain,Light Rain,60,2013-04-17 22:51:00
5:53 PM,39.0,33.1,79,30.05,4.0,NE,13.8,-,0.00,Rain,Light Rain,50,2013-04-17 22:53:00
6:24 PM,39.2,33.8,81,30.03,2.0,ENE,9.2,-,0.00,Rain,Light Rain,60,2013-04-17 23:24:00
6:32 PM,37.4,33.8,87,30.02,1.2,ENE,6.9,-,0.00,Rain,Light Rain,70,2013-04-17 23:32:00
6:48 PM,37.4,33.8,87,30.04,1.5,East,6.9,-,0.01,Rain,Light Rain,90,2013-04-17 23:48:00
6:53 PM,37.9,35.1,89,30.06,1.5,East,5.8,-,0.02,Rain,Light Rain,80,2013-04-17 23:53:00
7:08 PM,37.4,35.6,93,30.02,1.2,ENE,10.4,-,0.01,Rain,Light Rain,60,2013-04-18 00:08:00
7:14 PM,37.4,35.6,93,30.01,1.5,ENE,10.4,19.6,0.02,Rain,Light Rain,60,2013-04-18 00:14:00
7:41 PM,37.4,35.6,93,30.01,2.0,NE,9.2,-,0.03,Rain,Light Rain,40,2013-04-18 00:41:00
7:53 PM,37.9,35.1,89,30.03,2.5,ENE,8.1,-,0.03,Rain,Light Rain,60,2013-04-18 00:53:00
8:02 PM,37.4,35.6,93,30.01,3.0,NE,10.4,-,0.00,Rain,Light Rain,50,2013-04-18 01:02:00
8:10 PM,37.4,35.6,93,30.01,2.5,ENE,10.4,-,0.00,Rain,Light Rain,60,2013-04-18 01:10:00
8:28 PM,37.4,35.6,93,30.01,4.0,ENE,9.2,-,0.01,Rain,Light Rain,60,2013-04-18 01:28:00
8:53 PM,37.9,35.1,89,30.03,5.0,ENE,9.2,-,0.01,Rain,Light Rain,70,2013-04-18 01:53:00
9:37 PM,37.4,35.6,93,30.03,3.0,ENE,6.9,-,0.02,Rain,Light Rain,60,2013-04-18 02:37:00
9:44 PM,37.4,35.6,93,30.03,4.0,NE,9.2,-,0.03,Rain,Light Rain,50,2013-04-18 02:44:00
9:53 PM,37.9,35.1,89,30.03,5.0,NE,10.4,-,0.03,Rain,Light Rain,40,2013-04-18 02:53:00
10:00 PM,37.4,35.6,93,30.01,6.0,NNE,8.1,-,0.00,Rain,Light Rain,30,2013-04-18 03:00:00
10:53 PM,35.1,32.0,89,29.94,6.0,NNE,17.3,23.0,0.04,Rain,Light Rain,20,2013-04-18 03:53:00
11:53 PM,35.1,32.0,89,29.95,5.0,NNE,9.2,19.6,0.01,Rain,Light Rain,30,2013-04-18 04:53:00